COSMOS 1275 DEB, 12753

Orbit data source: Space-Track

COSMOS 1275 DEB, 12753 is space debris in LEO originally from a launch on Thu, 04 Jun 1981 UTC launched from the Plesetsk Missile And Space Complex (PKMTR). Debris objects in space refer to the collection of defunct objects orbiting the Earth. Examples of debris include non-operational satellites, rocket bodies, and fragments generated from explosions, collisions, or faulty payload assembly.

Loading next visibility...
Identifier
12753, 1981-053CW
Orbit
LEO
Country
Flag of CISCIS
Related business
Manufacturer
Unknown
Mission
Spacecraft
Bus & Motor
Unknown
Mass
Unknown
Launch date (UTC)
1981-06-04 (44 years ago)
Launch vehicle
Unknown
Launch site
Plesetsk Missile And Space Complex (PKMTR)
Object type
Payload
Rocket body
Debris
Shape & HBR
Unknown shape, 0.1 m
Radar Cross Section
Small (<0.1 m²)

Expand to show TLE details & history
Last TLE update: 16 hours ago

TLE from 16 hours ago
0 COSMOS 1275 DEB
1 12753U 81053CW  25308.44842263  .00000959  00000-0  92046-3 0  9993
2 12753  82.8016 292.2772 0090971 300.4832 184.4819 13.77563639210123
Epoch: 2025-11-04T10:45Z
TLE epoch observation values (Epoch: 2025-11-04T10:45:43.715Z)
Latitude
54.56922°
Longitude
-103.26248°
Altitude
1,048.222 km
Speed
7.3 km/s
True Right ascension
06h 48m 25s
True Declination
54° 24' 47"
Sunlit
Object was in daylight at epoch
Visualization orbit readout
Latitude
Unknown
Longitude
Unknown
Altitude
Unknown
Speed
Unknown
Apparent Right ascension
Unknown
Apparent Declination
Unknown
Sunlit
N/A
Visualization observer readout
Local Sidereal Time
22:53:22
Azimuth
Unknown
Elevation
Unknown
Doppler factor
Unknown
Orbital elements
Apogee altitude
1,036.535 km
Perigee altitude
902.847 km
Semi-major axis
7,347.828 km
Eccentricity
0.0091
Inclination
82.8016°
RAAN
292.2772°
Arg. of periapsis
300.4832°
True anomaly
184.40135°
Mean anomaly
184.4819°
Eccentric anomaly
184.44154°
Mean motion
3.44592 °/min
Orbital period
104.47 mins
BSTAR
0.00092046
Loading maneuver chart data...
Computing Atmospheric mass density...
Loading historical data...
Loading historical data...
Loading historical data...
Loading historical data...
Loading historical data...
Loading historical data...
Loading historical data...

Documentation

Showing up to 5 results
|